This is the latest recevied weather packets stored in our database for station/object KC8P. If no packets are shown the sender has not sent any weather packets the latest 1 day(s).
| Time | Temp. | Humidity | Pressure | Rain* | Wind** | Luminosity | Snow |
|---|---|---|---|---|---|---|---|
| 1778091970 | 10.56° C | 52% | 1012.4 hPa | 0 mm | - | 338 W/m² | - |
| 1778091708 | 10.56° C | 53% | 1012.4 hPa | 0 mm | - | 298 W/m² | - |
| 1778091313 | 11.11° C | 51% | 1012.4 hPa | 0 mm | - | 347 W/m² | - |
| 1778091247 | 11.67° C | 50% | 1012.4 hPa | 0 mm | - | 354 W/m² | - |
| 1778091182 | 11.67° C | 53% | 1012.4 hPa | 0 mm | - | 370 W/m² | - |
| 1778091050 | 11.11° C | 55% | 1012.4 hPa | 0 mm | - | 595 W/m² | - |
| 1778090984 | 10.56° C | 55% | 1012.4 hPa | 0 mm | - | 703 W/m² | - |
| 1778090853 | 11.11° C | 53% | 1012.4 hPa | 0 mm | - | 432 W/m² | - |
| 1778090788 | 11.11° C | 53% | 1012.4 hPa | 0 mm | - | 414 W/m² | - |
| 1778090590 | 10° C | 54% | 1012.4 hPa | 0 mm | - | 381 W/m² | - |
| 1778090524 | 10° C | 55% | 1012.4 hPa | 0 mm | - | 313 W/m² | - |
| 1778090471 | 10° C | 55% | 1012.4 hPa | 0 mm | - | 311 W/m² | - |
| 1778090392 | 9.44° C | 57% | 1012.8 hPa | 0 mm | - | 329 W/m² | - |
| 1778090065 | 9.44° C | 57% | 1012.8 hPa | 0 mm | - | 294 W/m² | - |
| 1778089999 | 9.44° C | 56% | 1012.4 hPa | 0 mm | - | 311 W/m² | - |
| 1778089735 | 9.44° C | 57% | 1012.8 hPa | 0 mm | - | 309 W/m² | - |
| 1778088225 | 10° C | 54% | 1012.4 hPa | 0 mm | - | 454 W/m² | - |
| 1778088159 | 10° C | 54% | 1012.8 hPa | 0 mm | - | 440 W/m² | - |
| 1778087875 | 10.56° C | 53% | 1012.4 hPa | 0 mm | - | 313 W/m² | - |
| 1778087705 | 10.56° C | 53% | 1012.4 hPa | 0 mm | - | 297 W/m² | - |
| 1778087696 | 10.56° C | 53% | 1012.4 hPa | 0 mm | - | 297 W/m² | - |
| 1778087551 | 10.56° C | 55% | 1012.4 hPa | 0 mm | - | 313 W/m² | - |
| 1778087397 | 10° C | 55% | 1012.4 hPa | 0 mm | - | 327 W/m² | - |
| 1778087230 | 9.44° C | 54% | 1012.4 hPa | 0 mm | - | 351 W/m² | - |
| 1778087077 | 9.44° C | 54% | 1012.4 hPa | 0 mm | - | 356 W/m² | - |
* Rain latest hour (hover to see other rain measurements)
** Current wind speed in m/s (hover to see current wind gust speed)